Weather History for Hilton Head Island, SC

Change the Weather History Date:

Tuesday, December 3, 2013

  Actual Average Record
Temperature  
Mean Temperature 55 °F -  
Max Temperature 64 °F 64 °F 79 °F (1984)
Min Temperature 46 °F 43 °F 25 °F (1960)
Degree Days  
Heating Degree Days 10    
Growing Degree Days 5 (Base 50)    
Moisture  
Dew Point 53 °F    
Average Humidity 93    
Maximum Humidity 100    
Minimum Humidity 68    
Precipitation  
Precipitation 0.00 in - - ()
Sea Level Pressure  
Sea Level Pressure 29.95 in    
Wind  
Wind Speed 2 mph (South)    
Max Wind Speed 9 mph    
Max Gust Speed -    
Visibility 6 miles    
Events      
Averages and records for this station are not official NWS values.
T = Trace of Precipitation, MM = Missing Value Source: NWS Daily Summary

Daily Weather History Graph

Daily Weather History Graph

Search for Another Location

Airport:

Trip Planner

Search our weather history database for the weather conditions in past years. The results will help you decide how hot, cold, wet, or windy it might be!

Date:

Astronomy

Dec. 03, 2013 Rise Set
Actual Time 7:07 AM EST 5:17 PM EST
Civil Twilight 6:40 AM EST 5:44 PM EST
Nautical Twilight 6:10 AM EST 6:14 PM EST
Astronomical Twilight 5:40 AM EST 6:44 PM EST
Moon 7:36 AM EST (12/3) 6:18 PM EST (12/3)
Length of Visible Light 11h 03m
Length of Day
10h 09m
New Moon, 1% of the Moon is Illuminated
Dec 3
New Moon
Dec 9
First Quarter
Dec 17
Full
Dec 25
Last Quarter
Jan 1
New

Hourly Weather History & Observations

Time (EST) Temp. Windchill Dew Point Humidity Pressure Visibility Wind Dir Wind Speed Gust Speed Precip Events Conditions
12:15 AM 46.4 °F 45.2 °F 46.4 °F 100% 29.91 in 5.0 mi SW 3.5 mph - 0.00 in   Clear
12:35 AM 46.4 °F - 46.4 °F 100% 29.92 in 3.0 mi Calm Calm - 0.00 in   Clear
12:55 AM 46.4 °F 45.2 °F 46.4 °F 100% 29.92 in 5.0 mi South 3.5 mph - 0.00 in   Clear
1:15 AM 46.4 °F - 46.4 °F 100% 29.92 in 3.0 mi Calm Calm - 0.00 in   Clear
1:35 AM 48.2 °F - 46.4 °F 93% 29.92 in 4.0 mi Calm Calm - 0.00 in   Clear
1:55 AM 48.2 °F - 46.4 °F 93% 29.92 in 3.0 mi Calm Calm - 0.00 in   Clear
2:15 AM 48.2 °F - 46.4 °F 93% 29.93 in 3.0 mi Calm Calm - 0.00 in   Clear
2:35 AM 46.4 °F - 46.4 °F 100% 29.93 in 3.0 mi Calm Calm - 0.00 in   Clear
2:55 AM 48.2 °F - 46.4 °F 93% 29.92 in 4.0 mi Calm Calm - 0.00 in   Clear
3:15 AM 48.2 °F - 48.2 °F 100% 29.91 in 4.0 mi South 3.5 mph - 0.00 in   Clear
3:35 AM 48.2 °F - 48.2 °F 100% 29.91 in 4.0 mi Calm Calm - 0.00 in   Clear
3:55 AM 48.2 °F - 48.2 °F 100% 29.91 in 4.0 mi Calm Calm - 0.00 in   Clear
4:15 AM 48.2 °F - 48.2 °F 100% 29.91 in 2.5 mi Calm Calm - 0.00 in   Clear
4:35 AM 48.2 °F - 48.2 °F 100% 29.90 in 2.5 mi Calm Calm - 0.00 in   Clear
4:55 AM 48.2 °F - 48.2 °F 100% 29.90 in 2.5 mi Calm Calm - 0.00 in   Clear
5:15 AM 46.4 °F - 46.4 °F 100% 29.91 in 5.0 mi Calm Calm - 0.00 in   Clear
5:35 AM 48.2 °F - 48.2 °F 100% 29.92 in 4.0 mi Calm Calm - 0.00 in   Clear
6:50 AM 51.8 °F - 50.0 °F 94% 29.96 in 5.0 mi Calm Calm - N/A   Mostly Cloudy
7:50 AM 53.6 °F - 51.8 °F 94% 29.96 in 7.0 mi Calm Calm - N/A   Scattered Clouds
8:50 AM 57.2 °F - 51.8 °F 82% 29.97 in 10.0 mi Calm Calm - N/A   Scattered Clouds
9:50 AM 60.8 °F - 51.8 °F 72% 30.00 in 10.0 mi Calm Calm - N/A   Clear
10:50 AM 64.4 °F - 53.6 °F 68% 30.01 in 10.0 mi South 9.2 mph - N/A   Clear
11:50 AM 64.4 °F - 53.6 °F 68% 29.98 in 10.0 mi South 9.2 mph - N/A   Overcast
12:50 PM 62.6 °F - 55.4 °F 77% 29.96 in 10.0 mi South 5.8 mph - N/A   Overcast
1:50 PM 62.6 °F - 55.4 °F 77% 29.94 in 10.0 mi South 6.9 mph - N/A   Overcast
2:50 PM 62.6 °F - 55.4 °F 77% 29.93 in 10.0 mi South 6.9 mph - N/A   Mostly Cloudy
3:50 PM 62.6 °F - 55.4 °F 77% 29.94 in 10.0 mi South 6.9 mph - N/A   Mostly Cloudy
4:50 PM 60.8 °F - 57.2 °F 88% 29.95 in 10.0 mi Calm Calm - N/A   Mostly Cloudy
5:50 PM 59.0 °F - 55.4 °F 88% 29.96 in 10.0 mi Calm Calm - N/A   Clear
6:50 PM 59.0 °F - 57.2 °F 94% 29.96 in 7.0 mi Calm Calm - N/A   Partly Cloudy
7:50 PM 59.0 °F - 57.2 °F 94% 29.99 in 10.0 mi Calm Calm - N/A   Clear
8:15 PM 59.0 °F - 57.2 °F 94% 29.99 in 5.0 mi Calm Calm - 0.00 in   Clear
8:35 PM 57.2 °F - 57.2 °F 100% 29.99 in 5.0 mi Calm Calm - 0.00 in   Clear
8:55 PM 57.2 °F - 57.2 °F 100% 29.99 in 4.0 mi Calm Calm - 0.00 in   Clear
9:15 PM 57.2 °F - 57.2 °F 100% 29.99 in 4.0 mi Calm Calm - 0.00 in   Clear
9:35 PM 57.2 °F - 57.2 °F 100% 29.99 in 5.0 mi Calm Calm - 0.00 in   Clear
9:55 PM 57.2 °F - 57.2 °F 100% 29.99 in 4.0 mi Calm Calm - 0.00 in   Clear
10:15 PM 57.2 °F - 57.2 °F 100% 29.99 in 5.0 mi Calm Calm - 0.00 in   Clear
10:35 PM 57.2 °F - 57.2 °F 100% 29.99 in 4.0 mi Calm Calm - 0.00 in   Clear
10:55 PM 57.2 °F - 57.2 °F 100% 29.99 in 5.0 mi SE 3.5 mph - 0.00 in   Clear
11:15 PM 59.0 °F - 59.0 °F 100% 29.99 in 8.0 mi SE 4.6 mph - 0.00 in   Clear
11:35 PM 60.8 °F - 60.8 °F 100% 29.99 in 10.0 mi SSE 4.6 mph - 0.00 in   Clear
11:55 PM 62.6 °F - 60.8 °F 94% 29.99 in 10.0 mi SSE 4.6 mph - 0.00 in   Clear